Location: Beneden-Haastrecht
(52.0012°N, 4.7557°E)
Time: 03:28:08
(UTC+00:00)

ARGOS - Pass Details

Date: 24 October 2020
Orbit: 820 x 835 km, 98.4° (Epoch: 27 November)

Event Time Altitude Azimuth Distance (km) Brightness Sun altitude
Exits shadow 18:09:07 12° 140° (SE) 2,332 5.1 -16.3°
Maximum altitude 18:14:03 51° 67° (ENE) 1,049 3.3 -17.0°
Drops below altitude 10° 18:19:18 10° 353° (N) 2,460 5.7 -17.8°
Sets 18:21:44 0° 349° (NNW) 3,399 6.5 -18.2°
